Location: Arundel
(45.9667°N, 74.6189°W)
Time: 05:55:48
(UTC+00:00)

X-37B - Pass Details

Date: 13 December 2022
Orbit: 277 x 277 km, 45.0° (Epoch: 01 November)

Event Time Altitude Azimuth Distance (km) Brightness Sun altitude
Rises 22:00:16 0° 259° (W) 1,913 6.0 -7.9°
Reaches altitude 10° 22:02:11 10° 256° (WSW) 1,101 4.5 -8.2°
Maximum altitude 22:04:37 65° 173° (S) 308 0.1 -8.6°
Enters shadow 22:06:47 12° 91° (E) 992 2.1 -8.9°
